Preview of NWS' New Version of Forecast
This preview is not operational and should not be used for support decisions.
Click here for details.
Latest weather observations around

Kansas City, Kansas City Downtown Airport (KMKC)

Date/ Time (CDT) Wind (mph) Vis. (mi) Weather Sky Cond. Temp (°F) Rel. Humidity Wind Chill(°F) Heat Index(°F) Pressure Precip. (in)
Air Dwpt 6 hour Altimeter (inHg) Sea level (mb) 1 hr 3 hr 6 hr
Max Min
Mar 23 17:54   10 Clear CLR 81 51     35%   80 29.77 1007.6      
Mar 23 16:54 S 21 10 Mostly Clear and Windy FEW003 81 51     35%   80 29.78 1007.8      
Mar 23 16:54   10 Mostly Clear FEW003 81 51     35%   80 29.78 1007.8      
Mar 23 16:54 S 21 10 Mostly Clear and Windy FEW003 81 51     35%   80 29.78 1007.8      
Mar 23 16:54   10 Mostly Clear FEW003 81 51     35%   80 29.78 1007.8      
Mar 23 15:54 S 15 10 Clear CLR 80 50     35%   79 29.8 1008.7      
Mar 23 14:54   10 Clear CLR 79 51     38%   78 29.85 1010.1      
Mar 23 14:54 S 21 10 Clear and Windy CLR 79 51     38%   78 29.85 1010.1      
Mar 23 14:54   10 Clear CLR 79 51     38%   78 29.85 1010.1      
Mar 23 14:54 S 21 10 Clear and Windy CLR 79 51     38%   78 29.85 1010.1      
Mar 23 13:54   10 Clear CLR 76 51     42%   75 29.9 1012      
Mar 23 13:54 S 20 10 Clear and Windy CLR 76 51     42%   75 29.9 1012      
Mar 23 12:54 S 15 10 Clear CLR 71 48     44%   70 29.95 1014      
Mar 23 11:54 S 15 10 Clear CLR 66 43     43%     30 1015.6      
Mar 23 10:54   10 Partly Cloudy SCT100 62 40     44%     30.04 1017.1      
Mar 23 10:54 S 17 10 Partly Cloudy SCT100 62 40     44%     30.04 1017.1      
Mar 23 09:54 S 13 10 Cloudy BKN065 OVC085 56 36     47%     30.05 1017.6      
Mar 23 08:54 SE 9 10 Mostly Cloudy SCT055 BKN095 55 33     43%     30.06 1017.8      
Mar 23 07:54 SE 11 10 Cloudy OVC033 54 31     41%     30.07 1018.3      
Mar 23 06:54 SE 9 10 Cloudy OVC033 54 29     38%     30.07 1018.3      
Mar 23 05:54 SE 10 10 Cloudy OVC034 53 29     39%     30.08 1018.6      
Mar 23 04:54 ESE 8 10 Cloudy OVC030 53 30     41%     30.09 1018.8      
Mar 23 04:36 ESE 8 10 Cloudy OVC029 52 30     43%     30.09        
Mar 23 03:54 ESE 10 10 Cloudy OVC031 52 27     38%     30.11 1019.6      
Mar 23 02:54 SE 9 10 Cloudy OVC034 52 26     36%     30.14 1020.6      
Mar 23 01:54 ESE 8 10 Cloudy OVC035 52 25     35%     30.16 1021.3      
Mar 23 00:54 E 9 10 Cloudy OVC039 52 25     35%     30.16 1021.4      
Mar 22 23:54 ESE 10 10 Cloudy OVC042 52 24     33%     30.18 1022      
Mar 22 23:54 ESE 10 10 Cloudy OVC042 52 24     33%     30.18 1022      
Mar 22 22:54 ESE 13 10 Cloudy OVC043 53 24     32%     30.18 1021.9      
Mar 22 21:54 ESE 16 10 Cloudy OVC042 53 25     33%     30.19 1022.3      
Mar 22 21:54   10 Cloudy OVC042 53 25     33%     30.19 1022.3      
Mar 22 21:54 ESE 16 10 Cloudy OVC042 53 25     33%     30.19 1022.3      
Mar 22 20:54 ESE 11 10 Cloudy OVC046 54 25     32%     30.19 1022.5      
Mar 22 20:54 ESE 11 10 Clear   54 25     32%     30.19 1022.5      
Mar 22 20:54 ESE 11 10 Cloudy OVC046 54 25     32%     30.19 1022.5      
Mar 22 19:54 E 14 10 Cloudy OVC045 55 24     30%     30.2 1022.8      
Mar 22 18:54 E 16 10 Cloudy OVC043 55 25     31%     30.21 1023.1      
Mar 22 18:54   10 Cloudy OVC043 55 25     31%     30.21 1023.1      
Mar 22 18:54 E 16 10 Cloudy OVC043 55 25     31%     30.21 1023.1      
Mar 22 17:54 ESE 11 10 Cloudy OVC050 56 26     31%     30.21 1023.1      
Mar 22 16:54 E 14 10 Clear CLR 57 27     31%     30.22 1023.4      
Mar 22 15:54 E 14 10 Clear CLR 56 27     33%     30.24 1023.9      
Mar 22 14:54 ENE 13 10 Partly Cloudy SCT080 56 27     33%     30.28 1025.4      
Mar 22 14:29 E 9 10 Clear   56 27     33%     30.3        
Mar 22 14:29 E 9 10 Clear   56 27     33%     30.3        
Mar 22 13:54 ENE 11 10 Clear CLR 56 27     33%     30.31 1026.5      
Mar 22 12:54 ENE 9 10 Clear CLR 54 26     34%     30.34 1027.5      
Mar 22 12:54 ENE 9 10 Clear   54 26     34%     30.34 1027.5      
Mar 22 11:54 SE 7 10 Clear CLR 52 25     35%     30.36 1028.3      
Mar 22 10:54 ENE 10 10 Clear CLR 48 24     39% 43   30.37 1028.5      
Mar 22 09:54 E 15 10 Clear CLR 43 22     43% 36   30.35 1028      
Mar 22 09:54   10 Clear CLR 43 22     43%     30.35 1028      
Mar 22 09:54 E 15 10 Clear CLR 43 22     43% 36   30.35 1028      
Mar 22 08:54 E 11 10 Clear CLR 41 21     45% 34   30.39 1029.3      
Mar 22 07:54 E 11 10 Clear CLR 38 21     50% 30   30.39 1029.3      
Mar 22 07:54 E 11 10 Clear CLR 38 21     50% 30   30.39 1029.3      
Mar 22 06:54 ENE 13 10 Clear CLR 39 22     50% 31   30.38 1028.8      
Mar 22 06:54 ENE 13 10 Clear   39 22     50% 31   30.38 1028.8      
Mar 22 06:54 ENE 13 10 Clear CLR 39 22     50% 31   30.38 1028.8      
Mar 22 05:54 ENE 11 10 Mostly Cloudy BKN100 41 22     46% 34   30.37 1028.5      
Mar 22 04:54 NE 9 10 Partly Cloudy SCT100 41 23     48% 35   30.38 1028.8      
Mar 22 03:54 NE 13 10 Clear CLR 42 22     44% 35   30.36 1028.2      
Mar 22 02:54 ENE 14 10 Clear CLR 44 22     41% 37   30.35 1027.7      
Mar 22 01:54 ENE 13 10 Clear CLR 45 24     44% 39   30.33 1027.1      
Mar 22 00:54 NE 9 10 Clear CLR 46 26     45% 41   30.34 1027.3      
Mar 21 23:54 NE 11 10 Clear CLR 46 27     47% 41   30.34 1027.4      
Mar 21 22:54 NE 17 10 Mostly Clear FEW120 48 27     44% 42   30.32 1026.9      
Mar 21 22:54   10 Mostly Clear FEW120 48 27     44%     30.32 1026.9      
Mar 21 22:54 NE 17 10 Mostly Clear FEW120 48 27     44% 42   30.32 1026.9      
Mar 21 21:54 NE 17 10 Clear CLR 50 28     42% 44   30.32 1026.7      
Mar 21 21:54 NE 17 10 Clear CLR 50 28     42% 44   30.32 1026.7      
Mar 21 20:54 NE 16 10 Clear CLR 53 36     52%     30.28 1025.3      
Mar 21 19:54 NE 14 10 Clear CLR 54 30     40%     30.26 1024.6      
Mar 21 18:54 NE 14 10 Clear CLR 58 26     29%     30.23 1023.6      
Mar 21 18:54 NE 14 10 Clear   58 26     29%     30.23 1023.6      
Mar 21 18:54 NE 14 10 Clear CLR 58 26     29%     30.23 1023.6      
Mar 21 17:54   10 Clear CLR 61 26     26%     30.22 1023.1      
Mar 21 17:54 NNE 16 10 Clear CLR 61 26     26%     30.22 1023.1      
Mar 21 17:54   10 Clear CLR 61 26     26%     30.22 1023.1      
Mar 21 16:54 NE 21 10 Clear and Windy CLR 62 25     24%     30.22 1023.1      
Mar 21 16:54   10 Clear CLR 62 25     24%     30.22 1023.1      
Mar 21 15:54   10 Mostly Clear FEW095 62 26     25%     30.22 1023.2      
Mar 21 14:54 NE 17 10 Partly Cloudy FEW090 SCT110 61 28     28%     30.22 1023      
Mar 21 14:54 NE 17 10 Partly Cloudy FEW090 SCT110 61 28     28%     30.22 1023      
Mar 21 13:54   10 Mostly Cloudy BKN080 BKN095 60 31     33%     30.24 1023.7      
Mar 21 12:54   10 Cloudy FEW031 OVC075 59 40     49%     30.25 1023.9      
Mar 21 12:54 NE 20 10 Cloudy and Windy FEW031 OVC075 59 40     49%     30.25 1023.9      
Mar 21 11:54 NE 14 10 Cloudy SCT026 OVC070 55 38     52%     30.26 1024.3      
Mar 21 10:54 NE 13 10 Cloudy FEW026 OVC070 54 38     55%     30.24 1023.7      
Mar 21 10:54 NE 13 10 Cloudy FEW026 OVC070 54 38     55%     30.24 1023.7      
Mar 21 09:54 ENE 11 10 Mostly Cloudy BKN065 52 37     57%     30.21 1022.7      
Mar 21 08:54 NE 9 10 Clear CLR 50 36     58% 46   30.17 1021.4      
Mar 21 07:54 NE 11 10 Clear CLR 49 35     59% 44   30.14 1020.4      
Mar 21 06:54 ENE 9 10 Clear CLR 49 35     59% 45   30.13 1020      
Mar 21 06:54 ENE 9 10 Clear CLR 49 35     59% 45   30.13 1020      
Mar 21 05:54 NNE 8 10 Clear CLR 50 35     56% 47   30.12 1019.4      
Mar 21 04:54 NE 8 10 Mostly Clear FEW075 52 37     57%     30.11 1019.2      
Mar 21 03:54 NE 9 10 Clear CLR 54 40     59%     30.09 1018.6      
Mar 21 02:54 NE 10 10 Clear CLR 56 42     60%     30.09 1018.5      
Mar 21 01:54 NE 10 10 Clear CLR 58 42     55%     30.08 1018.2      
Mar 21 00:54 ENE 9 10 Clear CLR 60 42     51%     30.07 1017.6      
Mar 20 23:54 ENE 11 10 Clear CLR 62 42     48%     30.06 1017.4      
Mar 20 22:54 ENE 13 10 Clear CLR 63 43     48%     30.05 1017      
Mar 20 21:54 NE 13 10 Clear CLR 66 43     43%     30.04 1016.5      
Mar 20 20:54 NE 13 10 Clear CLR 67 44     44%     30.01 1015.9      
Mar 20 19:54 NNE 13 10 Clear CLR 70 45     41%     29.99 1015.2      
Mar 20 18:54 NNE 11 10 Clear CLR 74 47     38%   73 29.97 1014.1      
Mar 20 18:54 NNE 11 10 Clear CLR 74 47     38%   73 29.97 1014.1      
Mar 20 17:54 N 11 10 Clear CLR 78 48     35%   77 29.95 1013.3      
Mar 20 17:54 N 11 10 Clear   78 48     35%   77 29.95 1013.3      
Mar 20 17:54 N 11 10 Clear CLR 78 48     35%   77 29.95 1013.3      
Mar 20 16:54 N 11 10 Clear CLR 79 50     36%   78 29.93 1012.7      
Mar 20 15:54 7 10 Clear CLR 81 52     37%   80 29.91 1012      
Mar 20 14:54 N 8 10 Clear CLR 81 53     38%   80 29.9 1011.7      
Mar 20 13:54 ENE 9 10 Clear CLR 79 55     44%   79 29.91 1012      
Mar 20 12:54 NNE 7 10 Mostly Clear FEW003 79 56     45%   79 29.92 1012.3      
Mar 20 11:54 NNW 8 10 Clear CLR 77 57     50%   77 29.92 1012.4      
Mar 20 10:54 NW 5 10 Clear CLR 74 59     60%   74 29.91 1012.1      
Mar 20 09:54 W 8 10 Clear CLR 71 60     68%   71 29.91 1012.3      
Mar 20 07:54 SW 8 10 Clear CLR 66 60     81%     29.86 1010.6      
Mar 20 07:54 SW 8 10 Clear CLR 66 60     81%     29.86 1010.6      
Mar 20 06:54 SW 10 10 Clear CLR 67 60     79%     29.86 1010.4      
Mar 20 06:54 SW 10 10 Clear   67 60     79%     29.86 1010.4      
Mar 20 06:54 SW 10 10 Clear CLR 67 60     79%     29.86 1010.4      
Mar 20 05:54 SW 7 10 Clear CLR 69 60     73%     29.86 1010.3      
Mar 20 05:54 SW 7 10 Clear   69 60     73%     29.86 1010.3      
Mar 20 05:54 SW 7 10 Clear CLR 69 60     73%     29.86 1010.3      
Mar 20 04:54 SW 7 10 Clear CLR 70 60     71%     29.85 1010.1      
Mar 20 03:54 SW 11 10 Clear CLR 72 60     66%   72 29.86 1010.1      
Mar 20 02:54 SSW 11 10 Clear CLR 73 59     61%   73 29.86 1010.5      
Mar 20 01:54 SSW 13 10 Clear CLR 73 59     61%   73 29.87 1010.6      
Mar 20 01:54 SSW 13 10 Clear CLR 73 59     61%   73 29.87 1010.6      
Mar 20 00:54 SSW 17 10 Clear CLR 75 58     55%   75 29.88 1011.2      
Mar 20 00:54   10 Clear CLR 75 58     55%   75 29.88 1011.2      
Mar 19 23:54 S 14 10 Clear CLR 75 58     55%   75 29.89 1011.6      
Mar 19 23:54 S 14 10 Clear CLR 75 58     55%   75 29.89 1011.6      
Mar 19 22:54 S 16 10 Clear CLR 77 57     50%   77 29.9 1012      
Mar 19 21:54 S 18 10 Clear CLR 78 57     48%   78 29.91 1012.4      
Mar 19 21:54   10 Clear CLR 78 57     48%   78 29.91 1012.4      
Mar 19 21:54 S 18 10 Clear CLR 78 57     48%   78 29.91 1012.4      
Mar 19 20:54 S 15 10 Clear CLR 79 58     49%   79 29.91 1012.4      
Mar 19 20:54 S 15 10 Clear CLR 79 58     49%   79 29.91 1012.4      
Mar 19 19:54 S 10 10 Clear CLR 81 57     44%   81 29.91 1012.3      
Mar 19 18:54 S 14 10 Clear CLR 84 57     40%   83 29.88 1011.4      
Mar 19 17:54 SSW 20 10 Clear and Windy CLR 86 56     36%   85 29.88 1011.1      
Mar 19 17:54   10 Clear CLR 86 56     36%   85 29.88 1011.1      
Mar 19 16:54   10 Clear CLR 88 55     33%   86 29.9 1011.9      
Mar 19 15:54   10 Clear CLR 87 58     37%   86 29.92 1012.7      
Mar 19 14:54   10 Clear CLR 84 58     41%   83 29.96 1014      
Mar 19 14:54 S 16 10 Clear CLR 84 58     41%   83 29.96 1014      
Mar 19 13:54 S 10 10 Clear CLR 80 54     41%   80 30 1015.5      
Mar 19 12:54 S 11 10 Clear CLR   48      %     30.05 1017.2      
Mar 19 11:54 SSE 9 10 Clear CLR   42      %     30.09 1018.6      
Mar 19 11:54 SSE 9 10 Clear CLR 70 42     36%     30.09 1018.6      
Mar 19 10:54 SE 9 10 Clear CLR 63 35     35%     30.12 1019.6      
Mar 19 08:54 E 6 10 Mostly Clear FEW060 51 34     52%     30.15 1021      
Mar 19 07:54 E 10 10 Cloudy OVC036 49 34     56% 45   30.16 1021.4      
Mar 19 06:54 E 6 10 Cloudy BKN039 BKN047 OVC070 49 34     56% 46   30.17 1021.6 0   0
Mar 19 06:54 E 6 10 Clear   49 34     56% 46   30.17 1021.6 0   0
Mar 19 05:54 N 10 10 Mostly Cloudy BKN050 BKN060 52 25     35%     30.2 1022.3      
Mar 19 05:54 N 10 10 Clear   52 25     35%     30.2 1022.3      
Mar 19 05:54 N 10 10 Mostly Cloudy BKN050 BKN060 52 25     35%     30.2 1022.3      
Mar 19 04:54 ENE 6 10 Mostly Cloudy FEW050 SCT065 BKN080 53 23     31%     30.18 1021.8      
Mar 19 03:54 ENE 5 10 Cloudy OVC070 53 24     32%     30.19 1022.1      
Mar 19 03:54 ENE 5 10 Clear   53 24     32%     30.19 1022.1      
Mar 19 03:54 ENE 5 10 Cloudy OVC070 53 24     32%     30.19 1022.1      
Mar 19 02:54 ENE 7 10 Mostly Cloudy BKN060 53 24     32%     30.2 1022.7      
Mar 19 00:54 NE 7 10 Cloudy BKN060 OVC085 53 26     35%     30.23 1023.6      
Mar 18 22:54 NNE 3 10 Partly Cloudy SCT080 55 20     25%     30.26 1024.6      
Mar 18 21:54 N 0 10 Clear CLR 55 18     23%     30.25 1024.5      
Mar 18 20:54 E 5 10 Clear CLR 56 19     23%     30.25 1024.3      
Mar 18 19:54 E 6 10 Clear CLR 58 18     21%     30.24 1024.2      
Mar 18 18:54 N 0 10 Clear CLR 64 12     13%     30.25 1024.3      
Mar 18 18:54 N 0 10 Clear CLR 64        %     30.25 1024.3      
Mar 18 17:54 N 0 10 Clear CLR 65 14     14%     30.26 1024.6      
Mar 18 16:54 N 0 10 Clear CLR 65 13     13%     30.28 1025.2      
Mar 18 15:54 SSW 3 10 Clear CLR 64 13     13%     30.28 1025.4      
Mar 18 14:54 N 0 10 Clear CLR 62 15     16%     30.31 1026.3      
Mar 18 13:54 NNE 5 10 Clear CLR 61 15     16%     30.34 1027.4      
Mar 18 12:54 N 0 10 Clear CLR 58 17     20%     30.37 1028.3      
Mar 18 11:54 N 7 10 Clear CLR 56 18     22%     30.38 1028.5      
Mar 18 10:54 N 7 10 Clear CLR 52 23     32%     30.38 1028.8      
Mar 18 09:54 N 9 10 Clear CLR 49 23     36% 45   30.38 1028.7      
Mar 18 08:54 N 5 10 Clear CLR 44 23     43% 41   30.38 1028.7      
Mar 18 07:54 NNW 3 10 Mostly Clear FEW085 42 22     44% 40   30.37 1028.4      
Mar 18 06:54 N 7 10 Mostly Clear FEW120 42 24     49% 38   30.35 1027.6      
Mar 18 05:54 WNW 3 10 Clear CLR 43 27     53% 41   30.34 1027.3      
Mar 18 04:54 N 5 10 Clear CLR 43 28     55% 40   30.32 1026.7      
Mar 18 03:54 NNE 9 10 Clear CLR 46 30     53% 41   30.3 1025.9      
Mar 18 02:54 NNE 3 10 Clear CLR 46 30     53% 45   30.31 1026      
Mar 18 01:54 N 8 10 Clear CLR 52 29     41%     30.29 1025.4      
Mar 18 01:54 N 8 10 Clear   52 29     41%     30.29 1025.4      
Mar 18 01:54 N 8 10 Clear CLR 52 29     41%     30.29 1025.4      
Mar 18 00:54 N 6 10 Clear CLR 54 26     34%     30.27 1024.7      
Mar 17 23:54 N 8 10 Clear CLR 57 26     30%     30.26 1024.3      
Mar 17 22:54 WNW 3 10 Clear CLR 58 33     39%     30.23 1023.5      
Mar 17 21:54 N 5 10 Clear CLR 57 34     42%     30.21 1022.7      
Mar 17 20:54 N 0 10 Clear CLR 64 32     30%     30.18 1021.8      
Mar 17 20:54 N 0 10 Clear CLR 64 32     30%     30.18 1021.8      
Mar 17 20:54 N 0 10 Clear CLR 64 32     30%     30.18 1021.8      
Mar 17 18:54 N 9 10 Clear CLR 69 32     25%     30.13 1020      
Mar 17 17:54 N 8 10 Clear CLR 71 32     24%   69 30.11 1019.1      
Mar 17 16:54 NNW 7 10 Clear CLR 73 35     25%   71 30.09 1018.5      
Mar 17 14:54 NNW 11 10 Clear CLR 73 38     28%   71 30.08 1018.1      
Mar 17 13:54 NNW 11 10 Clear CLR 73 40     30%   71 30.08 1018.2      
Mar 17 11:54 N 13 10 Clear CLR 70 47     44%     30.08 1018.1      
Mar 17 11:54 N 13 10 Clear   70 47     44%     30.08 1018.1      
Mar 17 11:54 N 13 10 Clear CLR 70 47     44%     30.08 1018.1      
Mar 17 10:54 NNW 10 10 Clear CLR 65 50     58%     30.05 1017.1      
Mar 17 09:54 WNW 10 10 Clear CLR 62 55     78%     30.02 1016.3      
Mar 17 08:54 W 7 8 Mostly Clear FEW023 60 55     83%     30 1015.6      
Mar 17 08:42   8 Partly Cloudy SCT023          %              
Mar 17 08:42 WSW 6 8 Partly Cloudy SCT023 60 55     83%     29.99        
Mar 17 07:54 W 6 8 Cloudy OVC018 60 55     83%     29.97 1014.6      
Mar 17 07:31 SW 9 9 Cloudy SCT015 OVC023 60 55     83%     29.96        
Mar 17 06:54 SW 7 9 Cloudy OVC013 60 54     80%     29.94 1013.6      
Mar 17 06:15   10 Cloudy OVC014          %              
Mar 17 06:15 SSW 6 10 Cloudy OVC014 58 54     87%     29.94        
Mar 17 05:54 SW 5 10 Cloudy OVC015 59 54     83%     29.93 1013.2      
Mar 17 04:54 WSW 13 10 Cloudy OVC016 60 54     80%     29.91 1012.4      
Mar 17 03:54 SSW 7 10 Cloudy OVC018 60 53     78%     29.88 1011.6      
Mar 17 02:54 SSW 9 10 Cloudy OVC019 59 53     81%     29.88 1011.5      
Mar 17 02:54 SSW 9 10 Cloudy OVC019 59 53     81%     29.88 1011.5      
Mar 17 01:54 S 11 10 Cloudy OVC019 59 52     78%     29.87 1011.3      
Mar 17 00:37 SSW 14 10 Mostly Cloudy BKN023 58 49     72%     29.88        
Mar 16 23:54 S 14 10 Clear CLR 59 48     67%     29.89 1011.9      
Mar 16 22:54 S 14 10 Clear CLR 60 49     67%     29.9 1012.1      
Mar 16 21:54   10 Mostly Cloudy BKN048 62 50     65%     29.91 1012.7      
Mar 16 21:54 S 17 10 Mostly Cloudy BKN048 62 50     65%     29.91 1012.7      
Mar 16 20:54 S 8 10 Cloudy OVC047 62 50     65%     29.91 1012.9      
Mar 16 19:54 S 11 10 Clear CLR 64 50     60%     29.91 1012.7      
Mar 16 18:54 S 11 10 Clear CLR 65 49     56%     29.9 1012.3